Altendorf, метеограме

Altendorf: време по сату
Субота, 18 Jануара
Време Падавине Температура Осећа се Притисак Влажност Ветар
12:00 0.05 мм +4.5° +4.4° 725.000 мм.ж.с 82% 1 м/с, З
13:00 0.05 мм +5° +4.9° 724.000 мм.ж.с 77% 1 м/с, З
14:00 0.06 мм +4.6° +4.5° 724.000 мм.ж.с 79% 1 м/с, З
15:00 0.06 мм +4.2° +4.1° 724.000 мм.ж.с 81% 1 м/с, СЗ
16:00 0.06 мм +3.7° +3.7° 724.000 мм.ж.с 83% 1 м/с, СЗ
17:00 0.03 мм +2.5° +2.5° 725.000 мм.ж.с 86% 1 м/с, СЗ
18:00 0.03 мм +1.3° +1.3° 725.000 мм.ж.с 89% 1 м/с, З
19:00 0.03 мм +0.1° +0.1° 725.000 мм.ж.с 92% 0 м/с, Ј
20:00 0 мм +0.1° +0.1° 725.000 мм.ж.с 91% 0 м/с, Ј
21:00 0 мм +0° 726.000 мм.ж.с 91% 0 м/с, ЈИ
22:00 0 мм -0° -0° 726.000 мм.ж.с 90% 0 м/с, ЈИ
23:00 0.02 мм -0.1° -0.1° 726.000 мм.ж.с 91% 0 м/с, ЈИ
Недеља, 19 Jануара
Време Падавине Температура Осећа се Притисак Влажност Ветар
00:00 0.02 мм -0.1° -0.2° 726.000 мм.ж.с 91% 0 м/с, И
01:00 0.02 мм -0.2° -0.2° 726.000 мм.ж.с 91% 0 м/с, И
02:00 0.07 мм -0.3° -0.3° 726.000 мм.ж.с 92% 1 м/с, СИ
03:00 0.07 мм -0.3° -0.3° 726.000 мм.ж.с 93% 1 м/с, СИ
04:00 0.07 мм -0.4° -0.3° 726.000 мм.ж.с 94% 1 м/с, СИ
05:00 0.08 мм -0.5° -0.5° 727.000 мм.ж.с 95% 1 м/с, СИ
06:00 0.08 мм -0.7° -0.6° 727.000 мм.ж.с 96% 1 м/с, СИ
07:00 0.08 мм -0.9° -0.8° 727.000 мм.ж.с 96% 1 м/с, СИ
08:00 0.04 мм -0.4° -0.4° 727.000 мм.ж.с 94% 1 м/с, СИ
09:00 0.04 мм -0° 728.000 мм.ж.с 92% 1 м/с, СИ
10:00 0.04 мм +0.4° +0.4° 728.000 мм.ж.с 90% 1 м/с, СИ
11:00 0.04 мм +1° +0.9° 728.000 мм.ж.с 85% 1 м/с, СИ
12:00 0.04 мм +1.6° +1.4° 728.000 мм.ж.с 81% 2 м/с, СИ
13:00 0.04 мм +2.2° +2° 728.000 мм.ж.с 77% 2 м/с, СИ
14:00 0.06 мм +2° +1.8° 729.000 мм.ж.с 77% 2 м/с, СИ
15:00 0.06 мм +1.8° +1.7° 729.000 мм.ж.с 78% 2 м/с, СИ
16:00 0.06 мм +1.7° +1.5° 729.000 мм.ж.с 79% 2 м/с, СИ
17:00 0.03 мм +0.6° +0.5° 730.000 мм.ж.с 83% 2 м/с, СИ
18:00 0.03 мм -0.4° -0.5° 730.000 мм.ж.с 88% 2 м/с, СИ
19:00 0.03 мм -1.5° -1.5° 730.000 мм.ж.с 92% 2 м/с, СИ
20:00 0.01 мм -1.7° -1.7° 731.000 мм.ж.с 92% 2 м/с, СИ
21:00 0.01 мм -2° -2° 731.000 мм.ж.с 92% 2 м/с, И
22:00 0.01 мм -2.2° -2.2° 732.000 мм.ж.с 91% 2 м/с, И
23:00 0.01 мм -2.4° -2.4° 732.000 мм.ж.с 90% 2 м/с, И
Понедељак, 20 Jануара
Време Падавине Температура Осећа се Притисак Влажност Ветар
00:00 0.01 мм -2.6° -2.6° 732.000 мм.ж.с 89% 2 м/с, И
01:00 0.01 мм -2.7° -2.8° 733.000 мм.ж.с 88% 2 м/с, И
02:00 0 мм -3° -3.1° 733.000 мм.ж.с 86% 2 м/с, И
03:00 0 мм -3.3° -3.4° 733.000 мм.ж.с 85% 2 м/с, И
04:00 0 мм -3.6° -3.7° 733.000 мм.ж.с 83% 2 м/с, И
05:00 0 мм -3.7° -3.8° 733.000 мм.ж.с 80% 2 м/с, И
06:00 0 мм -3.8° -3.9° 733.000 мм.ж.с 77% 2 м/с, И
07:00 0 мм -3.8° -4° 733.000 мм.ж.с 74% 2 м/с, И
08:00 0 мм -2.8° -3.1° 733.000 мм.ж.с 70% 2 м/с, И
09:00 0 мм -1.8° -2.1° 733.000 мм.ж.с 66% 2 м/с, И
10:00 0 мм -0.8° -1.2° 734.000 мм.ж.с 63% 2 м/с, И
11:00 0 мм +0.7° +0.2° 734.000 мм.ж.с 59% 2 м/с, И

Такође

Meteograms hourly weather Мапе времена Преглед времена
Meteograms hourly weather Мапе времена Преглед времена
 
Време у Србији:
О проjекту
© meteoprog.rs 2003-2020.
Meteoprog.ua - погода в Украине 0.0426
sitemap